{"data":{"norad_id":65918,"epoch":"2026-05-25T01:37:25.575168Z","epoch_age_seconds":72385,"freshness":"FRESH","line1":"1 65918U 25225J   26145.06765712  .00010082  00000+0  35224-3 0  9996","line2":"2 65918  53.1593 170.7863 0001166  85.0144 275.0989 15.30183160 36103","mean_motion":15.3018316,"eccentricity":0.0001166,"inclination_deg":53.1593,"raan_deg":170.7863,"arg_perigee_deg":85.0144,"mean_anomaly_deg":275.0989,"bstar":0.00035224,"rev_number":3610,"period_min":94.106381356334,"perigee_km":474.46624437089,"apogee_km":476.06445779916,"semimajor_km":6853.402351085,"source":"CELESTRAK","updated_at":"2026-05-25T13:38:20.987460Z"}}